Location: Hylvaty SDH
(49.9612°N, 16.4057°E)
Time: 11:49:03
(UTC+01:00)

A-11 Canister half - Pass Details

Date: 04 October 2020
Orbit: 1526 x 1683 km, 47.3° (Epoch: 28 October)

Event Time Altitude Azimuth Distance (km) Brightness Sun altitude
Rises 03:21:58 0° 285° (WNW) 4,704 - -33.6°
Reaches altitude 10° 03:25:05 10° 281° (W) 3,734 - -33.2°
Maximum altitude 03:34:04 51° 209° (SSW) 1,914 - -32.1°
Exits shadow 03:36:10 45° 174° (S) 2,066 9.4 -31.8°
Drops below altitude 10° 03:43:20 10° 137° (SE) 3,837 11.1 -30.8°
Sets 03:46:35 0° 133° (SE) 4,843 11.8 -30.4°
